Wind_Speed
22 22 21 21 21 21 20 19 18 18 17 17 17 17 16 16 16 15 15 15 15 16 16 16 16 16 17 16 16 16 17 17 17 18 18 19 20 20 21 21 21 22 23 23 23 24 24 23 23 23 24 24 24 25 25 25 25 26 27 28 28 28 28 28 28 28 29 28 28
23 22 22 21 21 21 20 20 19 19 18 18 17 17 16 16 15 15 15 15 15 15 16 16 16 17 17 17 16 16 17 17 18 18 19 19 20 20 21 21 22 23 23 24 24 24 24 23 23 23 24 24 24 25 26 26 26 27 27 28 28 28 27 27 28 28 29 28 27
23 23 22 22 22 22 21 21 20 19 19 18 17 17 16 16 16 16 16 16 15 15 16 17 16 16 16 16 16 16 17 18 18 19 19 20 20 21 21 22 23 23 24 24 24 24 23 23 23 23 24 24 25 26 27 27 27 27 27 28 28 27 27 27 28 28 27 27 27
24 23 23 23 23 23 22 21 20 19 19 18 17 17 17 16 16 16 16 16 16 16 16 16 16 16 16 16 16 17 17 18 18 19 20 20 21 22 22 23 24 24 24 24 23 23 23 22 23 23 24 25 26 27 27 27 27 27 27 27 28 27 27 27 27 27 26 26 26
25 24 24 24 23 23 22 21 20 19 19 18 18 18 17 17 17 17 17 17 17 16 16 15 15 16 16 16 16 17 17 18 18 19 20 21 22 22 23 23 24 24 23 23 23 22 22 22 22 23 25 26 26 26 26 26 26 27 27 27 27 27 27 26 26 26 26 25 26
26 25 24 23 23 22 21 21 20 20 19 18 19 19 18 18 17 17 17 17 16 16 15 15 15 15 16 16 16 17 18 18 19 19 20 22 22 23 23 23 23 22 22 22 22 22 22 22 23 24 24 25 25 25 25 25 25 27 28 28 27 26 26 26 27 27 26 27 28
26 25 24 23 23 22 22 21 21 20 20 20 20 20 19 18 17 17 17 16 16 16 15 15 15 15 15 16 17 17 18 19 19 20 21 22 22 22 22 22 21 21 21 21 21 21 21 21 23 24 24 23 23 24 24 25 26 27 28 28 28 27 27 27 27 27 27 28 29
25 25 24 23 23 22 22 21 21 21 21 21 21 20 19 18 18 17 17 17 16 16 15 15 15 15 15 16 17 18 18 19 20 20 21 21 21 21 20 20 20 21 20 20 20 21 21 21 23 24 24 24 24 25 26 27 28 28 29 29 29 29 28 27 28 28 28 29 30
26 25 24 24 23 22 22 22 22 22 22 22 21 20 19 18 18 18 18 17 16 15 15 15 15 15 16 16 17 18 19 19 20 20 20 19 20 20 20 20 20 20 20 20 20 20 21 22 23 24 24 24 25 26 28 29 29 30 30 29 29 29 30 29 30 30 30 30 31
27 26 25 24 24 23 22 22 22 23 23 23 22 20 19 19 19 19 18 17 16 15 15 15 15 15 16 17 17 18 19 19 19 19 18 18 19 19 20 20 21 21 21 20 20 20 21 22 23 24 25 25 27 28 29 30 30 30 29 28 28 29 31 32 32 32 31 31 31
28 27 26 25 24 23 23 23 23 23 23 23 22 21 20 20 20 19 18 16 16 16 16 15 15 16 17 17 18 18 18 18 17 18 18 18 19 19 20 20 20 21 21 21 20 21 21 22 23 24 25 26 28 29 30 30 29 29 29 29 29 31 32 34 35 33 32 31 31
29 27 26 25 24 23 23 24 24 24 24 23 23 22 21 21 20 18 17 17 17 17 16 16 16 16 17 18 18 17 17 16 16 17 18 18 19 19 20 20 20 21 21 21 21 21 22 23 24 25 26 27 28 29 30 30 30 30 30 30 31 32 33 35 36 35 33 32 31
29 27 26 25 24 24 24 24 25 25 24 24 24 23 22 21 20 18 17 17 17 17 16 16 16 17 17 17 17 16 16 16 16 17 18 19 19 20 20 20 20 21 21 21 21 22 23 23 24 25 27 28 29 29 30 30 30 30 31 31 32 33 34 36 37 37 35 34 33
29 28 27 25 25 25 25 25 26 25 25 25 24 23 22 21 19 18 18 18 18 17 17 16 17 17 17 17 16 16 16 16 16 17 18 19 19 20 21 21 21 21 22 22 22 23 23 24 25 26 27 29 30 30 31 31 31 31 32 32 33 34 35 36 37 37 37 36 35
29 28 27 26 26 26 26 26 27 26 26 26 25 23 22 21 19 18 18 18 18 18 17 17 17 17 16 16 16 15 15 16 16 17 18 19 20 20 21 21 21 22 22 23 23 24 24 25 26 26 27 29 30 31 32 32 32 33 33 33 33 34 35 36 37 38 38 38 37
30 29 28 27 27 27 27 28 27 27 27 26 25 23 22 21 19 18 18 18 18 18 18 18 17 17 16 15 15 15 15 16 16 17 19 20 20 21 21 22 22 22 23 24 24 25 25 26 26 27 28 29 30 31 32 33 33 34 34 34 34 34 35 36 38 39 40 39 37
31 30 29 29 29 29 29 28 28 28 27 26 25 23 22 21 19 19 19 19 19 18 18 18 17 17 16 15 15 14 15 16 17 18 19 20 21 22 22 23 23 23 23 24 25 26 26 27 27 28 28 29 30 31 32 33 33 34 35 35 35 35 36 37 38 40 40 40 38
32 31 31 30 30 30 30 29 29 28 27 26 25 23 22 21 20 19 19 19 19 19 18 18 17 16 16 16 15 14 15 16 17 18 19 20 21 22 23 23 23 23 24 25 26 27 27 28 28 28 29 29 30 31 32 33 34 35 35 36 36 37 37 38 39 39 39 39 37
34 33 32 32 32 31 30 30 29 28 27 26 24 23 22 21 20 20 19 19 19 18 18 18 17 17 16 16 15 14 15 16 17 18 19 20 21 22 23 23 23 23 24 25 26 27 28 29 29 29 29 29 29 30 31 33 34 35 36 37 37 37 37 37 37 36 36 36 34
35 34 34 33 32 32 31 30 29 28 26 25 24 23 22 21 20 20 20 20 19 18 18 18 17 17 16 15 15 15 15 15 17 18 19 20 21 22 23 23 23 24 25 26 27 28 29 29 29 28 28 28 29 30 32 34 35 37 37 37 36 36 35 34 32 32 32 33 32
36 35 35 34 33 32 31 29 28 27 26 25 24 23 22 21 21 21 20 19 18 18 18 18 18 17 16 15 15 15 15 16 17 19 20 21 22 22 22 23 23 24 25 26 27 28 29 29 28 27 27 27 29 31 34 35 37 38 37 36 33 31 30 28 28 28 29 30 29
37 36 35 34 32 31 30 29 27 27 26 25 25 24 23 22 21 21 20 19 18 18 18 18 18 17 16 15 15 15 16 16 17 19 20 21 22 22 22 22 23 25 26 27 28 28 28 28 27 26 26 28 30 33 35 37 37 36 34 30 27 25 24 24 24 25 26 26 26
37 36 35 33 32 31 29 28 27 27 26 26 25 24 23 22 22 21 20 19 19 19 19 19 18 17 16 15 15 15 16 17 18 19 20 21 21 21 22 22 23 25 26 27 27 28 27 26 26 26 27 29 31 33 35 36 34 30 25 22 20 20 20 21 22 23 24 24 22
37 36 35 33 32 31 30 28 28 28 27 27 26 25 24 23 22 21 20 20 20 20 19 19 18 17 16 15 15 16 17 18 19 20 20 20 20 21 22 22 23 25 26 27 27 26 24 24 24 25 27 29 30 32 33 33 27 21 18 17 18 19 20 21 22 22 23 22 21
38 36 35 34 32 31 30 29 29 29 28 28 27 25 24 23 22 21 20 20 20 20 20 19 18 17 16 15 15 16 17 18 19 20 20 20 20 21 22 23 24 25 26 26 26 24 22 22 23 24 26 28 31 33 33 29 22 17 16 16 18 19 21 22 22 22 22 22 21
38 37 35 34 33 31 31 30 30 29 29 28 27 26 25 24 22 21 21 21 21 21 20 19 18 17 16 16 16 16 17 18 19 19 20 21 21 21 22 23 24 25 25 26 25 23 23 23 23 24 25 28 31 32 29 22 16 15 15 17 18 19 21 22 23 22 22 21 21
38 37 36 34 33 32 32 31 30 30 29 28 28 27 25 24 23 22 22 22 21 21 20 19 18 17 16 16 16 17 17 17 18 19 19 20 21 22 22 23 24 25 25 25 24 23 23 24 24 24 25 27 31 30 24 17 15 14 15 16 17 19 20 21 22 22 22 21 21
39 38 37 35 34 33 32 31 30 30 30 29 28 27 25 24 23 23 22 22 22 21 21 20 19 18 17 17 17 17 17 17 17 18 19 19 21 22 23 23 24 24 25 24 24 24 24 24 24 24 25 27 29 27 21 16 14 14 15 16 17 18 19 20 21 21 21 21 20
39 38 37 36 35 34 33 32 31 31 31 30 28 27 25 24 24 23 23 22 22 22 21 20 19 18 17 17 17 17 17 17 17 18 18 19 20 21 22 23 24 24 25 24 24 24 23 23 23 24 25 27 27 23 18 14 13 14 15 15 16 18 19 20 20 20 20 20 20
39 38 37 36 35 34 33 33 32 31 31 30 28 27 26 25 25 24 24 23 23 22 22 20 19 19 18 18 17 17 17 17 17 17 18 19 20 21 22 22 23 24 25 25 24 23 23 23 23 23 25 26 24 19 15 13 13 13 14 15 15 17 18 20 20 21 20 20 20
39 38 37 36 35 34 34 33 32 31 31 30 29 28 27 26 26 25 24 24 23 22 21 20 20 19 19 18 17 17 17 17 17 17 18 19 20 21 22 22 23 24 25 24 24 23 22 22 22 23 24 25 22 17 13 12 12 13 13 14 14 16 18 20 21 21 20 20 20
39 38 37 36 35 35 34 33 32 32 31 30 29 29 28 27 26 25 24 23 23 22 21 21 21 20 19 18 17 17 17 17 17 17 17 18 19 21 22 23 23 24 24 24 23 22 22 22 22 23 24 24 20 15 12 12 12 13 13 13 14 16 18 21 22 22 21 19 19
38 37 37 36 36 35 34 33 33 32 31 31 30 29 28 28 27 26 24 23 23 22 22 21 21 20 19 18 17 17 17 17 17 16 17 17 19 20 22 23 23 24 23 23 22 22 22 22 22 22 23 22 18 14 12 12 12 12 12 13 14 16 19 21 23 22 20 19 18
38 37 37 36 36 35 34 33 33 32 32 31 30 30 29 28 27 26 25 24 23 22 22 21 21 20 19 18 17 17 17 17 16 16 16 17 18 20 21 23 23 23 22 22 22 21 21 21 21 22 23 22 18 13 11 12 12 12 12 12 14 16 19 22 23 22 20 18 18
38 38 37 37 36 35 34 33 32 32 31 31 31 30 29 28 28 27 25 24 23 22 22 21 21 20 19 18 18 17 17 17 16 16 16 17 18 20 21 22 23 22 21 21 21 21 21 21 21 21 22 21 17 13 11 12 12 12 12 12 14 16 19 22 23 23 21 19 18
39 38 37 37 36 35 34 33 32 32 32 32 32 31 30 29 28 27 25 23 22 22 22 22 21 20 19 19 18 17 17 16 16 16 16 17 18 20 21 22 22 22 21 20 20 20 20 20 20 21 21 20 16 12 10 11 12 12 12 13 14 17 19 21 22 23 22 20 19
39 39 38 37 36 35 34 33 32 32 32 33 32 32 31 30 28 27 25 23 23 23 22 22 21 21 20 19 18 16 15 15 15 16 16 17 18 20 21 22 22 21 20 19 19 19 20 20 20 21 21 20 15 11 10 12 12 12 12 13 15 17 19 20 22 23 23 22 21
40 39 38 37 36 35 34 33 33 33 33 33 33 32 31 29 28 27 25 24 23 23 23 22 21 21 19 18 17 16 15 14 14 15 17 17 18 19 20 21 21 21 19 19 18 19 19 19 20 20 20 19 14 10 10 12 13 13 13 14 16 17 18 20 22 23 24 23 22
40 40 39 37 36 35 34 33 34 34 34 33 32 31 30 29 28 27 25 24 23 23 23 22 21 20 18 17 16 15 15 14 14 15 16 17 18 18 19 20 20 20 19 18 18 18 18 19 19 19 19 18 14 11 10 12 14 15 15 15 16 17 19 20 22 23 24 24 23
40 40 39 38 37 35 35 34 34 34 34 33 32 31 30 29 28 26 24 23 23 22 22 21 20 19 17 16 15 16 15 15 15 15 16 17 18 18 18 19 19 19 18 17 17 17 17 17 18 18 19 19 16 12 11 13 15 16 16 15 16 17 18 20 22 23 24 24 24
40 39 39 38 37 36 35 35 35 34 34 33 32 31 30 28 27 25 24 23 23 22 21 20 19 18 16 15 15 16 16 16 16 15 16 16 17 17 17 18 18 18 17 16 16 15 16 16 17 17 17 18 17 15 14 15 16 16 15 15 15 17 18 20 22 23 24 24 24
Wind_Direction
230 231 232 233 235 237 239 241 244 247 249 251 252 253 254 256 260 263 267 269 271 275 278 281 284 286 288 290 291 293 294 295 296 297 297 297 297 297 297 297 297 298 298 299 300 301 302 303 303 303 302 300 299 297 297 296 295 295 294 294 294 294 295 294 293 293 293 292 291
230 231 232 234 235 237 239 242 243 245 247 249 250 252 253 255 259 263 267 269 272 275 278 280 282 284 286 287 290 292 293 295 296 297 298 297 297 297 297 297 297 298 299 300 300 301 302 302 302 302 300 298 297 297 296 296 296 295 294 293 293 293 292 291 290 290 290 290 289
230 232 233 234 235 237 238 240 242 243 245 248 250 251 253 256 260 264 268 270 273 275 276 278 280 282 284 287 289 290 292 294 296 298 298 298 298 297 297 298 298 299 299 300 300 301 301 301 301 300 298 297 297 296 296 296 296 294 293 292 291 290 289 287 287 287 287 286 285
230 232 233 233 234 236 238 240 242 244 246 248 250 251 253 256 259 264 267 270 271 272 274 277 279 282 283 286 288 290 292 294 296 297 298 298 298 298 298 299 299 300 300 300 300 300 299 299 299 298 297 296 296 295 295 295 295 294 292 290 289 288 286 285 284 284 284 283 283
229 231 233 234 235 237 239 241 243 245 247 248 249 250 252 255 258 261 264 267 269 271 274 276 279 280 282 285 287 290 292 294 296 297 297 297 297 298 298 299 300 300 301 301 300 299 299 298 297 296 296 296 295 294 293 294 294 292 291 289 288 287 285 284 284 284 284 283 283
228 231 233 235 236 237 239 241 244 246 247 247 248 249 250 252 255 259 262 265 268 270 272 274 276 279 281 284 287 290 292 294 295 295 296 296 297 298 299 300 301 302 302 302 301 300 299 298 297 295 295 294 293 292 291 291 291 290 289 289 287 286 285 285 284 284 284 284 284
229 231 233 235 236 237 239 240 242 244 245 245 246 247 248 251 254 257 260 263 266 268 269 272 275 278 281 284 287 289 291 292 293 294 295 296 297 299 301 302 304 304 305 304 303 302 301 299 297 295 293 292 291 290 289 289 289 289 289 288 288 288 286 285 285 284 284 283 283
231 233 234 236 236 237 238 240 241 243 243 244 244 246 248 251 254 256 259 261 262 265 268 272 275 278 280 283 285 287 289 290 292 293 295 297 299 301 304 305 307 307 308 308 306 305 303 300 296 294 292 291 289 288 289 289 290 289 289 288 288 288 286 285 284 284 283 283 283
230 232 234 235 236 237 238 239 241 242 243 244 245 247 249 252 254 255 256 257 261 265 268 271 274 276 279 281 284 286 288 290 292 294 296 299 301 304 306 308 309 310 311 310 309 306 303 299 295 293 291 290 289 289 290 291 291 290 289 288 288 288 287 286 285 284 283 283 282
229 231 232 233 234 236 237 239 240 241 242 244 246 247 249 251 252 253 254 257 261 265 267 270 273 276 278 280 282 285 287 289 291 294 298 301 303 306 308 310 311 311 312 311 310 307 303 298 294 292 291 290 290 291 292 293 291 290 289 288 288 288 289 288 287 286 284 283 282
229 230 230 232 233 235 236 238 239 240 242 244 245 247 248 249 250 251 253 257 261 264 266 269 273 276 277 279 281 283 286 288 291 295 299 302 304 307 309 310 311 311 312 312 311 307 303 298 295 293 293 293 293 293 293 292 291 290 289 288 288 288 289 289 289 287 285 283 282
229 230 231 232 233 235 236 238 239 240 241 243 244 245 246 247 248 249 252 256 259 263 266 269 272 274 276 278 279 282 285 288 292 296 299 302 305 307 308 309 310 311 311 311 310 307 303 299 297 295 295 295 295 294 293 293 292 291 289 289 289 289 288 289 289 289 286 284 282
229 230 231 232 233 235 236 237 238 239 240 242 243 244 245 245 246 248 251 254 258 262 265 268 270 272 274 276 278 280 284 288 292 296 299 302 304 306 308 309 310 310 311 310 309 307 304 301 299 298 297 297 297 296 295 294 293 291 289 289 289 289 288 289 290 290 288 285 283
229 230 231 232 233 234 236 237 238 239 240 241 242 243 244 244 245 247 249 253 257 261 265 267 269 270 271 274 276 279 283 288 293 296 299 301 303 305 307 308 309 310 310 310 309 307 304 302 301 300 299 298 299 299 298 296 294 291 290 288 287 288 289 290 291 291 289 286 283
229 230 231 232 233 234 235 236 237 238 239 240 241 242 242 243 244 246 249 253 256 260 263 266 267 268 269 271 274 278 283 288 293 296 299 301 303 305 306 307 309 309 309 309 308 307 305 303 302 301 300 300 300 301 300 298 296 293 291 289 287 288 289 290 291 291 289 286 284
228 229 230 231 232 233 234 235 236 237 238 239 240 241 241 242 243 245 248 252 256 259 262 264 265 266 267 268 272 277 283 288 292 296 298 301 303 305 306 307 308 309 309 309 308 307 306 306 305 304 302 301 301 301 300 299 297 295 292 290 289 288 289 290 291 291 290 288 285
228 229 230 231 232 233 233 234 235 236 238 239 239 240 240 241 243 245 247 251 255 258 260 262 263 264 266 268 271 277 283 288 292 295 298 301 303 305 306 307 308 309 309 309 308 308 308 308 307 306 304 303 302 301 300 300 298 296 294 293 291 290 290 291 292 292 291 290 287
227 229 229 230 231 232 233 234 235 236 237 238 239 239 240 241 242 244 247 250 253 256 258 259 261 262 265 268 272 277 283 288 292 296 299 301 303 304 305 306 308 309 310 310 309 309 309 309 308 308 306 304 303 302 301 300 298 297 296 295 293 292 292 293 294 294 293 291 289
227 228 229 230 231 232 233 233 235 236 237 238 239 239 239 240 242 244 247 249 251 254 257 258 259 261 263 267 272 278 283 288 293 296 299 301 302 304 305 307 309 310 311 311 310 310 310 310 309 309 307 306 305 304 303 301 299 298 297 295 293 292 293 295 296 296 295 293 290
227 228 229 230 231 231 232 233 234 236 237 238 239 239 239 240 242 244 246 248 250 252 255 256 258 260 263 267 273 279 284 289 294 297 299 300 302 303 305 307 309 311 311 311 311 311 310 310 310 309 309 308 306 305 304 302 300 299 297 294 293 293 294 296 297 298 298 296 292
227 229 229 230 231 231 232 233 234 236 238 238 238 238 239 240 241 243 245 248 250 251 253 254 256 259 262 268 274 280 286 290 294 296 298 300 301 303 305 308 309 311 311 312 312 312 312 311 311 311 310 309 307 306 304 302 300 298 295 294 294 296 297 299 299 300 300 299 295
228 229 230 230 231 232 233 234 235 237 238 238 238 238 238 239 241 243 245 248 249 250 250 252 254 257 262 268 275 282 288 291 293 295 297 299 301 303 305 308 309 310 311 311 312 312 313 313 313 313 312 310 308 306 304 301 298 295 295 297 300 302 303 303 302 302 303 302 299
228 229 230 231 231 232 233 234 235 237 237 237 237 237 237 239 240 243 245 247 248 248 249 251 253 257 263 269 276 283 288 291 293 294 296 298 300 303 305 308 309 310 310 311 312 313 313 313 312 312 310 308 305 304 301 298 296 296 300 306 310 310 309 307 307 307 307 307 304
228 229 230 230 231 232 233 234 235 236 236 236 236 236 237 238 240 242 244 245 246 247 248 251 253 258 263 269 275 281 286 289 292 294 296 298 300 303 306 308 309 309 310 312 312 312 309 307 306 306 305 304 302 300 298 297 300 307 316 319 318 317 316 316 316 315 314 312 309
228 229 229 230 231 231 232 233 234 235 235 235 235 236 237 238 240 241 243 244 245 246 248 250 254 258 263 268 274 279 283 287 290 293 296 298 301 303 306 307 308 309 310 312 311 308 304 302 301 301 302 302 301 299 298 299 308 320 327 325 324 323 324 325 325 323 320 316 311
227 228 229 230 230 231 232 233 233 234 235 235 235 236 237 238 239 241 243 244 245 246 248 250 253 257 262 267 272 277 281 284 288 292 295 298 301 303 305 307 308 309 311 312 310 306 303 302 302 302 303 304 302 301 302 309 323 332 332 331 330 329 328 327 327 325 322 317 312
226 227 228 229 230 231 232 232 233 234 234 234 234 235 236 238 239 241 242 244 245 247 248 250 252 256 260 265 270 275 279 283 287 291 294 297 300 302 304 306 308 309 311 312 309 306 305 305 305 306 305 305 303 304 309 323 334 336 334 332 331 331 330 328 327 326 322 318 314
225 227 228 229 230 231 231 231 232 233 233 233 234 235 236 237 239 240 242 244 246 247 249 250 252 255 260 264 268 273 278 282 286 290 294 296 299 301 303 305 308 310 311 310 307 305 306 306 307 307 306 306 306 311 321 334 338 336 333 332 331 332 332 332 331 329 325 320 315
225 226 227 228 228 230 230 231 231 232 232 233 234 235 236 237 239 240 242 244 245 247 249 251 253 256 260 264 268 273 278 282 286 290 293 296 298 300 302 305 307 310 311 310 308 306 307 307 308 308 308 308 311 318 329 338 338 335 332 331 332 334 337 338 337 335 330 325 319
224 225 226 227 228 229 230 230 230 231 232 232 233 234 235 237 238 239 241 242 244 246 249 252 255 258 260 263 268 273 278 282 285 289 293 296 298 300 303 305 308 310 311 312 310 308 307 308 309 309 310 311 315 322 333 340 338 334 331 331 334 339 343 345 344 342 337 332 325
224 225 225 226 227 228 229 230 230 231 231 232 233 234 235 236 237 239 240 242 244 247 250 253 255 257 260 264 268 273 277 281 285 289 292 295 298 301 303 306 308 310 311 312 310 308 307 308 309 310 311 313 317 325 336 342 339 334 331 332 337 343 348 350 349 346 342 337 331
223 224 225 226 227 228 229 230 230 230 231 232 232 233 234 236 237 238 240 242 245 247 250 252 254 256 259 263 268 272 276 281 285 288 292 296 299 301 304 306 307 309 311 312 310 308 308 309 310 310 312 315 319 327 338 343 339 334 332 334 339 345 349 351 350 347 343 339 335
222 223 224 225 226 228 229 230 230 230 231 232 232 233 235 236 237 239 240 242 244 246 249 250 253 255 259 264 268 273 277 281 284 288 292 296 299 301 303 304 306 309 311 311 308 307 308 309 310 311 313 316 318 326 339 344 341 336 334 335 339 344 348 351 351 348 344 339 335
221 222 223 224 226 227 228 229 230 230 231 231 232 233 235 236 237 238 239 240 243 246 248 250 253 256 260 264 269 274 278 281 284 288 292 296 299 301 302 303 306 308 311 311 308 307 308 309 310 311 313 316 317 325 338 344 342 337 335 336 339 343 347 349 351 349 345 339 334
220 220 222 224 225 226 227 228 228 229 230 231 232 233 234 235 236 237 238 240 243 246 248 250 253 256 260 263 267 271 276 280 284 288 292 296 299 300 301 303 305 308 310 311 309 308 308 309 310 312 314 315 316 323 338 345 342 338 336 337 339 342 345 347 349 349 348 343 337
219 219 220 222 224 225 225 226 227 228 229 230 231 233 233 234 235 236 238 240 242 245 247 249 252 255 258 262 265 269 274 279 284 288 292 296 298 300 302 304 305 307 309 311 311 309 308 309 310 312 314 315 315 323 340 346 344 340 338 337 339 341 343 345 347 349 349 347 343
219 219 220 221 222 223 224 225 225 226 228 230 231 232 232 233 234 236 238 239 241 243 245 247 250 253 256 261 265 269 273 278 283 288 292 295 297 300 302 304 305 307 309 311 312 310 309 309 310 312 314 315 317 327 343 349 347 344 340 339 340 340 341 342 345 347 349 350 348
219 219 219 220 220 221 222 223 224 225 227 229 230 231 232 233 234 236 237 238 239 242 244 247 249 252 256 261 266 270 273 276 281 286 291 294 297 300 302 304 305 306 309 311 311 310 309 310 310 312 315 316 320 332 347 351 350 347 344 341 339 338 338 340 343 345 347 349 348
218 219 219 219 219 220 221 222 223 225 227 228 230 231 231 233 234 236 237 238 239 242 244 247 250 253 258 263 267 271 273 275 279 285 289 294 297 300 302 303 304 305 307 308 308 308 309 310 310 313 315 318 321 333 348 353 352 349 345 341 337 335 335 337 340 342 344 345 345
218 219 219 219 219 219 220 221 223 225 227 228 229 230 231 232 234 236 238 238 240 242 244 248 251 255 259 263 267 271 274 276 280 284 289 293 297 299 300 300 301 303 304 304 304 305 307 309 310 313 316 319 322 332 347 353 351 348 344 339 335 333 333 336 338 339 340 341 342
218 218 218 219 219 220 220 222 224 226 227 228 229 230 231 233 235 237 238 238 240 241 244 247 251 255 259 262 266 270 274 277 280 284 289 293 295 296 297 297 298 300 300 300 300 303 306 309 310 313 316 320 324 331 343 348 347 344 339 335 333 332 332 333 334 336 336 337 338
Height
834 835 835 836 836 836 836 837 837 837 838 838 838 838 838 838 838 838 838 838 838 838 837 837 837 837 837 837 837 837 837 836 836 836 835 835 834 834 833 832 832 831 830 830 829 828 827 827 826 825 824 823 821 821 819 819 818 817 816 815 813 812 811 810 808 806 805 804 803
832 833 833 834 834 835 835 835 835 836 836 836 836 836 836 836 836 836 836 836 836 836 836 836 836 836 836 836 836 836 835 835 835 834 834 833 833 832 831 831 830 829 829 828 827 826 826 825 824 823 822 821 820 819 817 816 816 815 814 812 811 810 809 807 806 804 803 801 801
830 831 831 832 832 832 833 833 833 834 834 834 835 835 835 835 835 835 835 835 835 835 835 835 835 835 835 834 834 834 834 833 833 832 832 831 831 830 830 829 828 827 827 826 825 825 824 823 822 821 820 819 818 816 816 815 814 813 812 810 809 808 807 805 803 801 800 799 798
828 829 829 830 830 830 831 831 831 832 832 833 833 833 833 833 833 833 833 833 833 833 833 833 833 833 833 833 833 832 832 832 831 831 830 830 829 829 828 827 826 826 825 824 823 823 822 821 821 819 818 817 816 815 813 812 812 811 810 808 807 806 804 802 801 800 798 797 796
826 826 827 827 828 828 829 829 830 831 831 831 831 831 831 831 831 831 831 831 831 831 831 832 831 831 831 831 831 831 831 830 830 829 829 828 827 827 826 826 825 824 823 822 821 821 820 819 818 817 816 815 814 813 811 811 810 809 807 806 805 804 802 801 799 798 797 796 794
824 824 825 826 826 827 827 828 828 829 829 830 830 830 830 830 830 830 830 830 830 830 830 830 830 830 830 830 829 829 829 828 828 828 827 826 826 825 824 824 823 822 821 820 819 819 818 817 816 815 814 813 812 811 810 809 808 807 805 804 802 802 801 799 798 797 796 795 793
822 823 823 824 825 825 826 826 827 827 828 828 828 828 828 828 828 828 828 828 828 829 829 829 828 828 828 828 828 827 827 827 826 826 826 825 824 823 822 821 821 820 819 818 817 817 816 816 815 813 812 812 811 809 808 807 806 805 803 802 801 800 799 797 796 795 794 792 791
820 821 821 822 823 823 824 824 825 826 826 826 826 826 826 826 826 827 827 827 827 827 827 827 827 826 826 826 826 826 826 825 825 824 824 823 822 821 821 820 819 818 817 816 816 815 814 814 813 811 811 810 809 807 806 805 804 803 801 800 799 797 796 795 794 793 791 790 788
818 819 820 821 821 821 822 823 823 823 824 824 824 824 824 825 825 825 825 825 825 825 825 825 825 825 825 825 824 824 824 824 823 823 822 821 821 820 819 818 817 816 815 815 814 813 812 812 811 810 809 808 807 805 804 803 802 801 800 798 797 795 794 792 791 790 789 788 786
816 817 818 819 819 820 820 821 821 821 821 821 822 822 823 823 823 823 823 824 824 824 823 823 823 823 823 823 823 822 822 822 821 821 820 820 819 818 817 816 815 814 813 813 812 811 811 810 809 808 807 806 805 803 801 801 800 799 798 796 795 793 791 790 788 788 786 785 784
814 815 816 816 817 818 819 819 819 820 820 820 820 820 821 821 821 821 822 822 822 822 821 821 822 821 821 821 821 821 821 820 820 819 819 818 817 816 816 815 814 813 812 811 811 810 809 808 807 806 805 804 802 801 800 799 798 797 796 795 793 791 789 787 786 785 784 782 781
812 813 814 815 816 816 817 817 817 817 818 818 818 818 819 819 820 820 820 820 820 820 820 820 820 820 820 820 819 819 819 819 818 818 817 816 816 815 814 813 812 811 810 809 809 808 807 806 805 804 803 801 801 799 798 797 796 795 794 792 791 789 787 785 783 782 781 780 778
811 811 812 813 814 814 815 815 815 815 816 816 816 816 817 817 818 818 819 818 818 818 818 818 818 818 818 818 818 817 817 817 816 816 815 814 814 813 812 811 810 810 809 808 807 806 806 805 803 802 801 799 798 797 796 795 794 793 791 790 788 786 785 782 781 779 778 777 775
809 810 810 811 812 812 812 813 813 813 813 814 814 815 815 816 816 816 817 816 816 816 816 816 816 816 816 816 816 816 816 815 815 814 813 813 812 811 811 810 809 808 807 806 805 805 804 803 801 801 799 798 796 795 794 793 792 790 789 787 786 784 782 780 778 776 775 773 771
807 807 808 809 810 810 810 810 811 811 811 811 812 813 813 814 814 815 815 815 815 815 815 815 815 815 815 815 814 814 814 813 813 812 811 811 810 810 809 808 807 806 805 804 803 803 802 801 800 799 797 796 794 793 791 790 789 787 786 784 783 781 779 777 775 774 772 770 768
805 805 806 807 807 808 808 808 808 809 809 810 810 811 811 812 812 813 813 813 813 813 813 813 813 813 813 813 813 812 812 811 811 811 810 809 808 808 807 806 805 804 803 802 801 801 800 799 798 797 796 794 792 791 789 787 786 784 783 781 780 779 777 775 773 771 769 768 766
802 803 804 805 805 805 805 806 806 806 807 807 808 809 810 810 811 811 811 811 811 811 811 811 811 811 811 811 811 811 810 810 809 809 808 807 807 806 805 804 803 802 801 801 799 798 797 796 796 795 794 792 790 788 786 785 783 781 780 779 777 776 775 773 771 769 767 765 764
800 801 801 802 802 802 803 803 804 804 805 806 806 807 808 808 809 809 809 809 809 809 809 809 809 809 809 809 809 809 809 808 807 807 806 806 805 804 803 802 801 801 800 799 797 796 795 794 794 793 791 790 788 786 784 782 780 779 777 776 775 773 772 770 769 767 765 763 761
797 798 799 799 800 800 801 801 802 802 803 804 805 805 806 806 807 807 807 808 808 808 808 807 807 807 807 807 807 807 806 806 806 805 804 804 803 802 801 801 800 799 798 797 796 795 793 792 791 791 789 788 786 784 782 780 778 776 775 774 772 771 770 768 766 765 763 761 760
795 795 796 796 797 798 798 799 800 801 801 802 803 804 804 805 805 805 806 806 806 806 806 806 806 806 806 805 805 805 805 804 804 803 803 802 801 801 800 799 798 797 796 795 794 793 791 791 789 788 787 785 783 781 779 777 775 774 772 771 770 769 768 766 764 762 760 759 758
792 792 793 794 795 796 796 797 798 799 800 801 801 801 802 803 803 803 804 804 805 805 804 804 804 804 803 803 803 803 803 802 802 801 801 800 800 799 798 797 796 795 794 793 792 791 790 789 787 786 785 783 781 779 776 774 773 771 770 769 768 767 765 763 762 760 759 757 756
789 790 791 792 793 794 795 796 796 797 798 799 799 800 800 801 801 801 802 802 803 803 803 802 802 802 802 801 801 801 801 801 800 800 799 799 798 797 796 796 794 793 792 791 790 789 788 786 785 784 783 781 779 776 774 772 770 768 768 767 766 765 763 761 760 759 757 756 754
787 788 790 791 791 792 793 794 795 796 796 797 797 798 798 799 799 800 801 801 801 801 801 801 800 800 800 800 800 799 799 799 798 798 797 797 796 796 795 794 793 791 790 789 788 787 786 785 783 782 781 779 776 774 771 770 768 767 767 766 765 763 762 760 759 758 756 754 753
785 786 788 789 790 791 791 792 793 794 794 795 795 796 796 797 797 798 799 799 799 799 799 799 799 799 798 798 798 798 797 797 796 796 796 795 794 794 793 792 791 790 789 787 786 786 785 784 782 781 780 778 775 773 770 769 768 767 766 765 764 762 761 760 758 756 755 753 751
783 784 786 787 788 789 790 791 791 791 792 792 793 794 795 795 796 796 797 797 797 797 797 797 797 797 797 796 796 796 796 795 795 794 793 793 792 792 791 790 789 788 787 786 785 785 784 784 782 781 779 776 774 771 769 768 768 767 765 764 762 761 760 758 756 755 753 752 750
781 782 783 784 786 786 787 788 789 789 790 791 791 792 793 793 794 795 795 795 796 796 796 796 796 795 795 795 794 794 794 793 793 792 792 791 791 790 789 788 787 786 785 784 784 783 783 782 781 780 778 775 772 770 768 767 766 765 764 762 761 760 758 756 755 753 752 750 749
779 780 781 782 783 784 785 786 786 787 788 789 790 790 791 792 792 793 793 793 794 794 794 794 794 793 793 793 792 792 792 791 791 791 790 790 789 788 787 786 786 784 783 783 782 781 781 780 779 778 776 774 771 768 767 766 765 764 762 761 760 759 757 755 753 752 750 749 748
776 777 778 780 781 781 782 783 785 785 786 787 787 788 789 790 791 791 791 791 792 792 792 792 792 792 791 791 791 790 790 790 790 789 789 788 787 786 786 785 784 783 782 781 781 780 779 778 777 776 774 772 769 767 766 765 764 762 761 760 759 757 756 754 752 750 749 747 746
773 775 776 777 778 779 780 781 782 783 784 785 786 786 787 788 789 789 789 790 790 790 790 790 790 790 790 789 789 788 788 788 788 787 787 786 786 785 784 783 782 781 780 780 779 778 777 776 775 774 772 770 768 766 765 764 762 761 760 759 758 756 755 753 751 749 747 746 745
771 772 774 775 776 777 778 779 780 781 782 783 784 785 786 786 786 787 787 787 788 788 788 789 789 788 788 787 787 787 786 786 786 786 786 785 784 783 782 781 781 780 779 778 777 776 776 775 774 772 771 769 767 765 764 763 761 760 759 758 756 755 753 751 750 748 746 745 743
769 770 771 773 774 775 775 776 778 779 780 781 782 782 783 784 784 784 785 785 786 786 787 787 787 786 786 786 785 785 785 784 784 784 784 783 782 781 781 780 779 778 777 776 775 775 774 773 772 771 769 768 765 764 763 761 760 759 758 757 755 754 752 750 748 746 745 744 742
767 768 770 771 772 773 774 775 776 777 778 779 780 780 781 781 781 782 783 783 784 784 785 785 785 784 784 784 783 783 783 783 782 782 782 781 781 780 779 778 777 776 775 775 774 773 773 772 771 769 768 766 764 763 761 760 759 758 757 755 754 752 751 749 747 745 744 743 742
765 766 767 769 770 771 772 773 774 775 776 777 778 778 778 779 779 780 781 781 782 782 783 783 783 782 782 782 781 781 781 781 781 781 780 780 779 778 777 776 775 775 774 773 773 772 771 770 769 768 766 765 763 762 760 759 758 757 756 755 753 751 750 748 746 745 744 742 741
762 764 765 766 768 769 770 771 773 774 775 775 775 776 776 777 777 778 779 779 780 780 781 781 781 781 781 780 780 779 779 779 779 779 779 778 778 777 776 775 774 773 773 772 771 770 770 769 768 766 765 764 762 760 759 758 757 756 755 753 752 750 748 747 745 744 743 741 740
760 761 763 764 765 767 768 770 771 772 773 773 774 774 775 775 775 776 776 777 778 778 779 779 779 779 779 778 778 778 777 777 777 777 777 776 776 775 774 773 772 772 771 770 770 769 768 767 766 765 764 762 760 759 758 757 756 755 753 752 750 749 747 746 745 743 742 741 740
757 759 760 762 764 765 766 768 769 770 771 771 771 772 772 773 773 774 775 776 776 776 777 777 777 777 777 776 776 776 776 775 775 775 775 775 775 774 773 771 770 770 770 769 768 767 767 766 765 764 762 761 759 758 757 756 755 753 752 751 749 748 746 745 744 743 741 740 738
755 756 758 760 761 763 764 765 767 768 768 769 769 770 770 771 771 772 773 774 775 775 775 775 775 775 775 775 774 774 774 774 774 774 773 773 773 772 771 770 769 768 768 767 767 766 765 764 763 762 761 760 758 757 756 755 753 752 751 750 748 747 745 744 743 742 740 739 737
752 754 755 757 759 760 762 763 765 765 766 766 767 768 769 769 770 771 771 772 772 772 772 773 773 773 773 773 773 773 772 772 772 772 771 771 771 770 770 768 767 767 766 766 765 765 764 763 762 761 760 759 757 755 755 753 752 751 750 748 747 745 745 743 742 741 739 738 736
750 751 753 755 756 758 760 761 762 762 763 764 765 766 767 768 768 769 770 770 770 770 771 771 771 771 771 771 771 771 770 770 770 770 770 770 769 769 768 767 766 765 765 765 764 763 762 762 761 760 759 758 755 754 753 752 751 750 748 747 746 745 744 742 741 740 738 737 736
747 749 750 752 754 755 757 758 759 760 761 762 763 764 765 766 767 768 768 769 769 769 769 769 769 770 770 770 770 769 769 769 769 769 768 768 768 767 767 766 765 764 764 763 763 762 761 760 760 759 758 756 755 753 752 750 750 748 747 746 745 744 743 741 740 739 737 736 735
745 747 748 750 751 753 754 755 756 758 759 760 761 762 763 765 765 766 767 767 767 767 767 768 768 768 768 768 768 767 767 766 766 767 767 766 766 766 765 765 764 763 762 762 761 760 760 759 759 757 756 755 754 752 750 750 748 747 746 745 744 743 742 740 739 738 736 735 734